Location: ???????
(55.8860°N, 38.0932°E)
Time: 06:35:38
(UTC+00:00)

Cosmos 1743 - Visible Passes

Search period start: 16 July 2024 00:00
Search period end: 26 July 2024 00:00
Orbit: 474 x 486 km, 82.5° (Epoch: 15 July)

Date Brightness Start Highest point End Pass type
(mag) Time Alt. Az. Time Alt. Az. Time Alt. Az.
16 Jul 3.4 23:51:34 10° S 23:55:05 47° E 23:58:38 10° NNE visible
17 Jul 4.1 23:25:42 10° SSE 23:28:56 31° E 23:32:13 10° NNE visible
18 Jul 4.7 23:00:01 10° SE 23:02:50 21° E 23:05:39 10° NE visible
19 Jul 5.1 22:34:39 10° ESE 22:36:44 15° E 22:38:49 10° NE visible
20 Jul 2.7 00:07:35 10° SSW 00:11:13 67° WNW 00:14:54 10° N visible
20 Jul 2.6 23:41:21 11° S 23:44:55 80° E 23:48:36 10° NNE visible
21 Jul 3.2 23:15:24 12° S 23:18:37 51° E 23:22:12 10° NNE visible
22 Jul 3.9 22:49:25 12° SSE 22:52:22 33° E 22:55:42 10° NNE visible
23 Jul 4.5 22:23:24 11° SE 22:26:07 22° E 22:29:02 10° NE visible
23 Jul 3.3 23:57:40 12° SW 00:00:53 40° WNW 00:04:23 10° N visible
24 Jul 5.0 21:57:41 10° ESE 21:59:54 15° E 22:02:08 10° NE visible
24 Jul 2.7 23:31:36 16° SSW 23:34:25 62° WNW 23:38:05 10° N visible
25 Jul 5.3 21:32:58 10° E 21:33:42 10° E 21:34:27 10° ENE visible
25 Jul 2.6 23:05:31 20° S 23:08:00 85° E 23:11:41 10° NNE visible
